Hourly Data Report for October 02, 2017

All times are specified in Local Standard Time (LST). Add 1 hour to adjust for Daylight Saving Time where and when it is observed.

ABBOTSFORD A
BRITISH COLUMBIA

49°01'31.000" N
122°21'36.000" W
59.10 m
1100031
71108
YXX

Download Data

Hourly Data (October 2017)
Hourly Data Report for October 2, 2017
Temp Definition
°C
Dew Point Temp Definition
°C
Rel Hum Definition
%
Wind Dir Definition
10's deg

Wind Spd Definition
km/h
Visibility Definition
km
Stn Press Definition
kPa
Hmdx Definition


Wind Chill Definition


Weather Definition


TIME
00:00 Legend Double Dagger 8.1 7.3 95 33 4 24.1 101.39     LegendNANA
01:00 Legend Double Dagger 8.5 7.3 92 31 4 24.1 101.38     Mostly Cloudy
02:00 Legend Double Dagger 7.2 6.5 95 11 3 24.1 101.38     LegendNANA
03:00 Legend Double Dagger 7.9 7.2 95 35 8 24.1 101.37     LegendNANA
04:00 Legend Double Dagger 7.0 6.4 96 2 9 24.1 101.39     Mainly Clear
05:00 Legend Double Dagger 6.9 5.8 93 35 9 24.1 101.41     LegendNANA
06:00 Legend Double Dagger 6.9 6.3 96 8 8 48.3 101.42     LegendNANA
07:00 Legend Double Dagger 7.3 6.6 95 3 3 48.3 101.45     Mainly Clear
08:00 Legend Double Dagger 10.1 7.5 84 3 10 48.3 101.46     LegendNANA
09:00 Legend Double Dagger 12.6 7.1 69 3 8 48.3 101.46     LegendNANA
10:00 Legend Double Dagger 16.0 4.0 44 2 28 48.3 101.46     Mainly Clear
11:00 Legend Double Dagger 17.0 0.8 33 5 28 48.3 101.47     LegendNANA
12:00 Legend Double Dagger 17.9 1.1 32 4 26 48.3 101.48     LegendNANA
13:00 Legend Double Dagger 18.6 1.6 32 4 26 48.3 101.47     Clear
14:00 Legend Double Dagger 19.0 0.7 29 4 30 48.3 101.47     LegendNANA
15:00 Legend Double Dagger 19.1 -0.2 27 5 27 48.3 101.47     LegendNANA
16:00 Legend Double Dagger 19.0 0.3 28 4 16 48.3 101.49     Clear
17:00 Legend Double Dagger 18.3 -0.6 28 5 18 48.3 101.50     LegendNANA
18:00 Legend Double Dagger 15.2 1.3 39 1 14 48.3 101.55     LegendNANA
19:00 Legend Double Dagger 13.6 3.4 50 1 11 24.1 101.64     Clear
20:00 Legend Double Dagger 13.6 2.6 47 4 10 24.1 101.70     LegendNANA
21:00 Legend Double Dagger 12.2 1.9 49 1 18 24.1 101.74     LegendNANA
22:00 Legend Double Dagger 12.6 1.0 45 4 12 24.1 101.76     Clear
23:00 Legend Double Dagger 11.2 1.6 51 1 18 24.1 101.80     LegendNANA

Notes on Data Quality.

Legend

  • E = Estimated
  • M = Missing
  • NA = Not Available
  • ‡ = Partner data that is not subject to review by the National Climate Archives
Date modified: